Temp
6 6 6 6 6 6 6 6 6 6 6 6 6 6 6 6 6 6 6 6 5 5 4 4 3 3 3 2 2 2 1 1 0 -0 -0 -1 -1 -2 -2 -3 -3 -2 -4 -4
6 6 6 6 6 6 6 6 5 5 5 5 6 6 6 6 6 6 6 5 5 5 4 4 3 3 3 2 2 2 1 0 0 -0 -1 -1 -2 -2 -3 -3 -3 -3 -4 -6
6 6 5 5 6 6 6 6 6 5 5 5 5 5 6 6 5 5 5 5 4 4 4 3 3 2 2 1 1 1 0 0 0 -1 -1 -2 -3 -3 -4 -3 -4 -5 -6 -7
5 5 -0 5 5 5 5 5 5 5 5 5 5 5 5 5 5 4 4 4 3 3 3 2 2 1 1 0 0 0 -0 -1 -2 -2 -3 -3 -3 -3 -3 -4 -6 -6 -7 -7
5 4 5 5 4 5 4 4 4 4 5 4 4 5 4 4 4 3 3 3 3 2 2 1 1 1 0 -0 -0 -1 -1 -2 -3 -4 -4 -4 -4 -4 -5 -6 -6 -7 -7 -9
4 3 -2 5 5 4 4 4 4 4 5 4 4 4 3 3 3 3 2 2 2 1 1 0 0 -0 -0 -1 -1 -1 -2 -3 -5 -5 -4 -5 -6 -6 -6 -7 -7 -8 -9 -9
4 4 4 4 4 4 3 4 4 4 4 3 3 3 3 2 2 2 2 2 1 1 0 -0 -1 -1 -1 -1 -2 -3 -4 -5 -6 -6 -7 -6 -6 -7 -7 -7 -8 -8 -9 -10
3 3 2 4 3 3 4 4 4 4 4 3 3 2 2 2 2 2 1 1 0 -0 -0 -1 -1 -2 -2 -3 -4 -5 -6 -6 -7 -7 -7 -7 -7 -8 -8 -8 -8 -9 -10 -10
4 4 4 4 4 3 3 3 3 3 3 3 2 2 1 1 1 1 0 -0 -0 -1 -1 -2 -2 -3 -4 -5 -6 -6 -7 -7 -6 -7 -7 -8 -8 -8 -9 -9 -9 -10 -10 -10
4 4 4 4 3 3 3 3 3 3 2 2 2 1 1 1 0 -0 -0 -1 -1 -1 -2 -3 -4 -5 -6 -7 -7 -6 -6 -7 -8 -8 -8 -8 -9 -9 -9 -10 -10 -10 -11 -11
4 4 4 4 4 3 3 3 2 2 2 1 1 1 0 0 -0 -1 -1 -1 -2 -2 -3 -4 -5 -6 -6 -6 -7 -7 -8 -8 -8 -9 -9 -9 -10 -10 -10 -11 -11 -11 -12 -12
5 5 5 4 4 3 3 2 2 2 1 1 1 0 0 -0 -1 -1 -2 -2 -3 -3 -4 -5 -5 -6 -7 -7 -8 -8 -8 -9 -9 -9 -10 -10 -10 -10 -11 -11 -11 -12 -12 -13
4 5 4 4 3 3 2 2 1 1 1 1 0 0 -0 -1 -1 -2 -3 -3 -4 -4 -5 -6 -6 -7 -8 -8 -8 -9 -9 -10 -10 -10 -10 -10 -11 -11 -10 -11 -11 -11 -12 -12
4 4 4 3 3 2 2 1 1 1 0 0 -0 -1 -1 -2 -3 -3 -4 -4 -5 -6 -7 -7 -8 -8 -9 -9 -10 -10 -10 -10 -11 -11 -11 -11 -11 -11 -12 -12 -12 -11 -12 -13
3 3 3 3 2 2 2 1 1 1 0 -0 -1 -2 -2 -3 -4 -4 -5 -6 -7 -7 -8 -8 -9 -9 -10 -10 -10 -11 -11 -11 -11 -11 -12 -12 -12 -12 -13 -13 -13 -14 -14 -14
2 2 2 2 2 2 1 1 1 0 -1 -1 -2 -3 -4 -4 -5 -6 -7 -8 -8 -9 -9 -9 -10 -10 -10 -11 -11 -11 -12 -12 -12 -12 -12 -12 -13 -13 -14 -14 -15 -15 -16 -16
0 -0 2 2 2 2 1 0 -1 -2 -3 -3 -3 -4 -4 -5 -7 -8 -9 -9 -10 -11 -10 -10 -11 -11 -11 -11 -12 -12 -12 -12 -12 -12 -13 -13 -14 -14 -15 -16 -16 -17 -18 -18
1 1 1 1 0 -0 -1 -2 -2 -2 -3 -4 -4 -5 -6 -8 -10 -10 -10 -11 -12 -11 -11 -11 -11 -12 -12 -12 -12 -12 -12 -13 -13 -13 -14 -14 -15 -16 -17 -17 -18 -18 -19 -19
-0 -0 0 -0 -2 -2 -3 -3 -4 -5 -5 -5 -6 -7 -10 -10 -10 -10 -12 -12 -11 -11 -12 -12 -12 -12 -13 -13 -13 -13 -13 -13 -14 -14 -15 -16 -17 -17 -18 -19 -19 -20 -20 -20
-2 -2 -3 -3 -3 -4 -4 -5 -6 -7 -6 -6 -8 -10 -10 -10 -11 -12 -12 -12 -12 -12 -13 -13 -13 -13 -13 -13 -13 -13 -14 -14 -15 -16 -16 -17 -18 -18 -19 -20 -20 -21 -21 -21
-3 -4 -4 -4 -5 -6 -7 -7 -7 -7 -7 -9 -10 -10 -11 -13 -12 -12 -12 -12 -13 -13 -13 -13 -14 -14 -13 -14 -14 -14 -15 -15 -16 -17 -17 -18 -19 -19 -20 -21 -21 -21 -22 -22
-5 -5 -6 -7 -7 -8 -8 -8 -9 -9 -10 -10 -10 -12 -13 -13 -12 -13 -13 -13 -13 -13 -14 -14 -14 -14 -14 -14 -15 -15 -16 -16 -17 -18 -18 -19 -20 -20 -21 -21 -22 -22 -22 -22
-6 -7 -8 -8 -9 -9 -9 -10 -10 -10 -10 -11 -13 -13 -13 -13 -13 -13 -13 -14 -14 -14 -14 -14 -14 -15 -15 -15 -15 -16 -17 -17 -18 -19 -19 -20 -20 -21 -22 -22 -22 -22 -22 -22
-9 -9 -9 -10 -10 -10 -10 -11 -11 -11 -12 -13 -13 -13 -13 -13 -13 -14 -14 -14 -14 -15 -15 -15 -15 -15 -15 -16 -16 -17 -18 -18 -19 -20 -20 -21 -21 -22 -22 -22 -23 -23 -23 -23
-10 -10 -10 -10 -11 -11 -11 -11 -11 -12 -13 -13 -13 -13 -14 -14 -14 -15 -15 -15 -15 -15 -15 -15 -15 -16 -16 -17 -17 -18 -19 -20 -20 -20 -21 -22 -22 -23 -23 -23 -23 -23 -23 -23
-10 -10 -11 -11 -11 -11 -11 -12 -12 -13 -13 -13 -14 -14 -14 -15 -15 -15 -16 -16 -16 -16 -16 -16 -16 -17 -17 -18 -19 -19 -20 -21 -21 -21 -22 -22 -23 -23 -23 -23 -23 -23 -23 -23
-11 -11 -11 -12 -12 -12 -13 -13 -14 -14 -14 -15 -15 -15 -16 -16 -16 -16 -16 -16 -16 -17 -17 -17 -17 -18 -18 -19 -20 -21 -21 -21 -21 -22 -22 -23 -23 -23 -24 -24 -24 -24 -24 -24
Height
3076 3078 3079 3081 3082 3082 3082 3082 3082 3083 3083 3084 3085 3086 3087 3087 3087 3087 3089 3089 3089 3090 3090 3090 3090 3089 3089 3088 3087 3085 3083 3082 3081 3079 3078 3076 3074 3072 3070 3066 3063 3058 3053 3050
3071 3073 3075 3076 3078 3078 3078 3078 3077 3078 3078 3081 3080 3081 3082 3082 3083 3083 3084 3084 3084 3085 3085 3084 3083 3083 3082 3081 3079 3078 3075 3075 3073 3071 3070 3068 3066 3064 3062 3056 3053 3049 3045 3042
3067 3069 3071 3070 3071 3073 3073 3071 3072 3070 3073 3075 3076 3076 3077 3078 3078 3078 3078 3078 3078 3078 3078 3078 3077 3076 3075 3073 3072 3070 3069 3068 3066 3064 3062 3060 3058 3056 3052 3047 3043 3039 3038 3035
3063 3065 3068 3062 3064 3066 3065 3064 3064 3063 3066 3069 3070 3070 3070 3071 3072 3073 3074 3074 3074 3074 3073 3072 3071 3069 3068 3067 3065 3063 3061 3059 3058 3056 3054 3052 3050 3044 3042 3038 3033 3033 3031 3027
3058 3059 3058 3057 3058 3059 3058 3057 3057 3057 3058 3060 3062 3064 3065 3067 3068 3070 3070 3070 3070 3069 3067 3066 3065 3063 3061 3060 3058 3056 3054 3052 3050 3048 3046 3044 3041 3038 3034 3034 3030 3026 3022 3018
3053 3054 3055 3052 3054 3055 3054 3049 3051 3053 3053 3055 3056 3059 3061 3063 3064 3065 3066 3065 3064 3063 3062 3060 3058 3057 3055 3053 3051 3048 3046 3043 3041 3040 3039 3036 3034 3032 3028 3025 3021 3017 3014 3011
3046 3047 3046 3047 3049 3050 3050 3047 3046 3048 3050 3052 3055 3058 3059 3060 3060 3061 3060 3059 3058 3057 3055 3054 3052 3050 3048 3046 3043 3041 3038 3036 3035 3033 3032 3030 3027 3022 3019 3016 3012 3010 3006 3004
3042 3043 3042 3042 3043 3044 3042 3042 3043 3044 3046 3049 3051 3053 3054 3055 3056 3055 3055 3053 3052 3050 3049 3047 3046 3043 3041 3039 3036 3034 3032 3030 3028 3025 3023 3020 3018 3014 3011 3008 3005 3002 2998 2995
3036 3034 3035 3035 3036 3037 3036 3038 3040 3041 3043 3045 3047 3048 3049 3050 3050 3049 3048 3047 3046 3045 3043 3041 3038 3036 3034 3032 3030 3028 3026 3023 3020 3018 3016 3014 3011 3008 3004 3001 2997 2993 2988 2985
3029 3028 3029 3030 3031 3032 3033 3034 3036 3037 3039 3041 3042 3043 3044 3044 3044 3043 3042 3041 3040 3038 3036 3033 3031 3029 3027 3025 3023 3020 3018 3016 3015 3013 3010 3006 3003 3000 2996 2992 2987 2983 2978 2973
3021 3023 3023 3024 3025 3027 3029 3030 3032 3033 3035 3037 3038 3038 3039 3039 3038 3037 3036 3035 3033 3031 3029 3026 3024 3022 3020 3018 3016 3014 3012 3010 3007 3004 3002 2999 2996 2991 2987 2983 2977 2971 2966 2959
3013 3016 3016 3019 3020 3022 3023 3026 3027 3028 3029 3031 3032 3033 3033 3033 3032 3031 3029 3028 3026 3023 3021 3019 3017 3015 3014 3012 3010 3008 3006 3003 3001 2998 2994 2990 2986 2984 2981 2975 2969 2963 2955 2946
3009 3010 3010 3012 3014 3016 3018 3020 3022 3023 3024 3024 3025 3026 3026 3025 3024 3023 3022 3020 3018 3016 3014 3012 3011 3009 3008 3006 3004 3002 3000 2997 2994 2990 2986 2981 2977 2971 2966 2964 2957 2952 2944 2935
3002 3003 3004 3005 3007 3009 3011 3013 3015 3017 3017 3017 3018 3018 3018 3017 3016 3015 3013 3012 3010 3009 3007 3006 3005 3004 3002 3000 2998 2995 2992 2989 2985 2980 2976 2971 2965 2959 2952 2946 2940 2936 2929 2920
2994 2996 2999 3001 3001 3003 3004 3005 3007 3008 3009 3010 3010 3010 3010 3009 3008 3006 3005 3004 3003 3003 3002 3001 2999 2998 2996 2994 2991 2988 2985 2981 2976 2971 2965 2959 2953 2947 2939 2932 2925 2917 2911 2907
2986 2990 2993 2994 2994 2997 2998 2999 2999 2999 3000 3000 3000 3000 3000 3000 2999 2998 2998 2998 2998 2997 2997 2996 2994 2992 2989 2987 2984 2980 2976 2971 2966 2961 2955 2948 2941 2934 2927 2919 2911 2904 2896 2889
2979 2983 2986 2986 2987 2989 2990 2990 2989 2990 2986 2988 2990 2991 2992 2992 2992 2992 2993 2993 2992 2992 2991 2989 2987 2984 2982 2979 2975 2971 2967 2962 2956 2950 2943 2936 2929 2922 2914 2907 2900 2893 2886 2879
2973 2975 2977 2978 2979 2981 2982 2981 2981 2979 2980 2982 2983 2984 2984 2985 2986 2987 2986 2986 2987 2986 2984 2982 2980 2977 2973 2970 2966 2962 2957 2951 2945 2939 2932 2925 2917 2910 2903 2896 2890 2883 2878 2872
2966 2967 2968 2970 2972 2974 2974 2974 2974 2973 2973 2974 2975 2976 2978 2980 2981 2981 2981 2982 2981 2980 2977 2975 2972 2969 2965 2962 2957 2952 2946 2940 2934 2927 2921 2914 2907 2899 2893 2887 2881 2875 2870 2864
2961 2963 2963 2964 2965 2967 2966 2967 2968 2969 2966 2967 2969 2972 2975 2976 2975 2976 2977 2976 2975 2973 2970 2967 2964 2960 2956 2952 2947 2941 2935 2930 2923 2917 2910 2903 2897 2890 2884 2878 2873 2867 2862 2857
2956 2956 2957 2956 2958 2959 2959 2960 2961 2962 2962 2965 2968 2969 2970 2971 2973 2972 2971 2970 2968 2965 2963 2959 2956 2952 2947 2941 2936 2930 2925 2919 2912 2906 2900 2894 2888 2882 2876 2871 2866 2860 2856 2851
2952 2953 2953 2953 2953 2954 2955 2955 2957 2959 2960 2962 2964 2965 2967 2968 2968 2966 2965 2963 2960 2958 2954 2951 2947 2942 2937 2931 2926 2920 2914 2908 2902 2896 2890 2885 2879 2874 2869 2864 2859 2854 2849 2844
2949 2949 2950 2951 2951 2952 2953 2954 2955 2957 2958 2958 2960 2962 2963 2962 2961 2959 2958 2955 2953 2949 2946 2942 2937 2932 2926 2921 2915 2909 2904 2898 2892 2887 2882 2876 2871 2866 2861 2856 2852 2847 2842 2837
2948 2948 2949 2949 2949 2950 2952 2953 2954 2954 2954 2955 2957 2957 2957 2955 2954 2951 2949 2946 2943 2940 2935 2931 2926 2920 2915 2909 2904 2899 2893 2888 2884 2879 2873 2868 2863 2858 2853 2849 2844 2839 2834 2829
2946 2947 2947 2947 2948 2949 2950 2950 2950 2950 2950 2950 2950 2949 2948 2947 2945 2942 2939 2936 2933 2929 2924 2919 2914 2909 2904 2899 2894 2889 2884 2879 2875 2870 2865 2860 2856 2851 2846 2841 2836 2831 2826 2820
2945 2946 2946 2947 2946 2946 2946 2946 2945 2945 2944 2944 2943 2941 2939 2937 2935 2932 2929 2925 2921 2917 2913 2908 2903 2898 2894 2889 2885 2880 2875 2870 2866 2862 2857 2852 2848 2844 2839 2834 2829 2823 2818 2812
2944 2944 2944 2943 2942 2941 2941 2941 2940 2939 2938 2937 2935 2933 2930 2927 2924 2921 2918 2914 2910 2906 2902 2897 2893 2889 2884 2880 2875 2871 2866 2862 2858 2853 2849 2844 2840 2836 2832 2827 2822 2816 2811 2805
Wind_Speed
27 25 23 21 20 22 23 22 23 24 25 21 16 17 18 13 16 15 16 16 17 16 18 19 19 22 23 25 27 29 29 28 28 31 32 34 35 36 37 37 41 39 39 45
23 24 23 21 21 22 20 21 23 22 24 19 17 16 17 18 16 14 16 19 19 19 18 18 20 23 24 24 24 25 28 28 27 29 32 33 35 37 41 39 39 49 45 41
23 21 20 24 26 27 30 32 30 31 28 26 25 21 19 18 19 19 18 17 17 18 19 22 23 23 23 24 24 24 25 28 30 31 31 32 34 37 39 45 53 40 40 35
17 15 4 26 30 28 31 33 33 34 34 32 30 27 25 22 20 17 15 14 14 18 21 23 23 24 26 27 27 28 28 26 27 28 29 31 37 41 41 50 39 37 39 43
13 17 22 20 19 14 14 21 21 24 28 31 30 27 22 20 17 14 13 15 19 21 22 24 25 26 25 23 24 25 25 25 27 25 28 31 35 44 41 37 43 41 41 30
16 7 8 19 18 19 19 30 22 16 14 15 18 20 19 15 13 14 17 18 20 21 23 24 24 24 25 27 28 27 27 27 26 24 29 30 25 36 40 39 40 40 32 34
26 16 16 20 17 17 16 28 16 17 15 14 17 16 15 13 13 16 20 21 22 22 22 23 25 28 30 31 29 27 27 28 26 28 31 35 39 38 39 38 34 36 36 34
26 17 14 21 21 26 26 19 20 18 13 19 18 17 15 15 18 21 21 21 22 22 24 27 29 31 31 29 30 32 30 29 34 34 34 34 33 32 33 36 36 35 37 39
27 26 25 17 13 16 19 23 17 12 11 16 18 16 16 19 20 20 21 22 23 25 27 30 31 32 31 29 31 32 33 33 28 28 27 29 31 33 33 35 37 39 41 43
28 29 28 26 23 19 16 17 20 16 12 15 16 17 19 20 21 22 24 26 26 27 29 31 31 28 30 32 34 28 24 25 25 26 28 29 31 34 36 37 40 42 44 47
33 33 30 25 20 19 17 17 17 16 15 16 17 19 21 22 24 26 27 28 28 29 30 29 29 31 30 24 23 24 24 25 26 28 30 32 34 36 38 40 43 47 49 52
32 28 27 21 15 16 18 18 17 17 17 18 21 23 24 26 28 29 30 29 29 30 30 31 28 23 22 22 23 24 25 27 29 31 33 35 37 39 40 43 46 48 50 52
30 23 20 16 18 18 18 18 19 20 22 25 26 27 27 29 30 30 29 29 30 29 27 23 21 21 22 23 24 25 27 28 30 33 36 39 41 44 47 47 48 49 51 53
29 27 25 21 22 21 21 21 22 25 27 28 29 30 29 30 29 29 28 28 26 22 21 20 20 21 21 23 25 27 29 32 35 37 40 42 45 47 49 52 54 54 53 52
28 28 29 24 22 21 23 24 25 27 30 31 30 30 29 28 27 26 25 22 20 19 18 19 20 21 23 25 27 29 32 34 37 40 42 45 47 48 51 53 53 54 52 48
24 25 31 27 25 26 27 28 30 33 33 31 30 28 27 26 25 23 19 17 17 17 18 20 21 22 24 27 29 32 35 38 40 43 45 46 48 50 51 51 51 50 48 47
20 20 29 28 30 32 33 33 34 35 29 26 26 26 25 24 20 17 16 15 16 17 19 21 22 25 27 30 32 35 37 40 43 44 46 47 49 50 50 49 47 46 45 43
21 28 31 32 30 30 32 33 33 29 25 23 22 23 23 18 16 17 17 14 15 18 20 22 25 27 30 33 35 37 40 42 43 45 47 48 49 48 47 45 44 43 41 40
33 32 31 32 31 28 27 24 24 19 22 23 22 20 19 18 17 13 12 15 19 20 22 24 27 30 32 34 37 40 42 43 45 46 47 48 47 46 44 42 41 39 38 37
31 28 26 24 22 18 18 20 22 23 22 22 21 16 16 13 10 11 16 19 21 22 24 27 29 31 34 38 40 41 43 44 45 46 47 46 45 43 41 39 38 37 36 35
20 19 17 17 20 19 17 19 19 19 19 14 14 13 9 8 12 16 19 20 22 24 26 28 31 34 39 40 41 42 43 45 45 45 45 44 42 40 38 36 35 34 33 33
15 16 17 17 13 14 16 15 15 13 13 14 10 7 10 14 17 19 20 22 24 25 28 31 34 38 40 40 41 43 44 45 45 44 43 41 39 37 35 34 33 32 32 32
14 14 10 11 12 11 10 10 12 13 12 8 9 13 16 19 20 21 22 24 26 28 31 34 38 40 41 42 43 44 44 45 43 41 40 39 37 35 34 33 33 33 33 34
6 6 8 9 9 9 10 12 13 11 9 12 15 18 21 22 24 25 27 28 30 32 35 38 41 42 43 43 43 44 44 43 41 39 38 37 35 33 33 34 34 35 37 39
6 7 8 8 9 10 12 12 12 13 16 19 21 24 25 27 27 29 30 32 34 36 39 42 43 43 43 43 44 43 41 39 38 37 36 34 33 32 33 34 35 37 37 36
5 6 7 10 11 12 14 15 17 20 23 25 27 28 29 30 31 32 34 35 37 40 42 43 43 43 43 43 41 39 37 36 36 35 34 33 32 32 33 33 35 35 35 34
8 10 12 14 15 15 16 18 21 24 26 29 31 32 33 33 34 35 37 38 40 42 43 42 42 42 41 40 38 36 35 34 35 33 32 30 30 31 31 33 33 33 33 32
Wind_Direction
243 245 253 256 262 255 246 256 255 270 280 290 278 262 267 274 276 252 239 255 263 258 255 264 270 274 278 280 282 282 284 283 286 283 285 287 288 291 289 288 288 288 311 304
233 239 246 253 252 248 257 263 258 260 264 281 283 274 266 271 263 255 247 255 255 253 259 264 270 274 277 279 276 274 277 279 283 287 286 286 292 294 296 285 299 282 284 288
227 236 241 246 245 257 263 264 266 261 267 271 276 275 277 277 250 246 248 250 250 257 266 269 276 281 284 289 288 285 285 281 283 280 281 285 291 290 291 280 289 282 289 299
225 220 239 255 262 265 265 261 263 267 270 268 266 273 274 252 232 232 237 248 263 273 279 284 287 289 290 289 289 288 286 280 278 283 287 289 287 281 283 276 276 293 299 306
214 222 249 256 261 264 276 282 274 268 262 257 257 261 236 230 234 242 255 271 280 285 287 288 289 289 290 291 289 286 282 279 280 287 287 289 288 281 284 296 298 299 305 304
213 211 212 272 274 264 276 266 266 264 252 246 239 225 228 230 247 259 275 287 291 294 295 296 296 297 298 299 298 293 292 292 292 296 302 291 287 295 300 299 300 304 304 306
226 232 250 260 256 250 238 271 276 259 250 234 225 222 230 250 261 281 293 298 301 302 301 301 300 300 301 302 301 304 307 306 306 300 291 288 291 296 299 302 304 304 304 304
224 227 256 259 247 244 270 275 265 254 251 234 229 238 254 261 278 290 296 300 302 302 300 298 299 301 304 305 307 309 310 303 301 300 299 298 299 300 302 303 305 305 304 304
234 241 253 263 249 280 269 262 258 232 228 235 239 247 254 275 285 291 297 303 301 298 299 299 300 300 305 305 303 301 298 298 302 301 301 301 302 303 305 307 305 305 304 303
240 246 262 263 262 261 257 244 247 252 232 234 240 250 270 280 284 290 294 301 300 297 296 297 299 298 298 298 299 303 303 302 301 301 303 305 306 306 306 305 304 303 302 301
243 254 262 259 253 245 241 232 233 235 238 240 249 263 274 278 282 288 292 295 294 293 293 293 293 295 299 302 304 304 303 304 306 308 308 307 306 306 305 305 305 304 304 302
253 276 269 267 261 245 236 236 241 240 245 252 258 267 274 278 281 285 288 288 287 287 289 292 295 297 300 302 302 302 305 307 307 307 306 305 305 304 304 305 305 304 303 301
257 257 255 245 240 243 241 242 246 249 250 253 258 265 270 273 277 280 280 280 284 286 288 288 293 297 298 299 302 304 305 305 305 304 305 307 308 308 307 306 306 306 304 302
246 248 248 238 240 238 241 245 248 250 252 255 259 263 267 270 272 275 277 280 282 282 284 290 294 295 298 301 303 305 307 308 309 310 310 310 310 310 309 309 309 308 307 306
240 245 251 246 244 245 245 246 249 251 252 253 257 261 265 268 271 273 273 273 273 277 283 288 291 296 300 303 306 307 308 308 310 311 312 311 311 311 312 312 312 312 310 308
230 234 244 242 243 249 252 252 251 247 247 252 255 260 265 267 267 265 264 265 271 279 286 290 295 300 303 304 306 308 311 312 313 312 312 313 314 314 314 314 314 314 314 314
231 248 250 249 249 250 249 249 244 248 242 243 254 262 266 261 256 255 256 262 273 284 291 294 299 302 304 307 310 312 313 313 314 315 315 315 315 316 317 317 316 317 318 320
244 241 247 246 247 249 248 247 255 244 247 254 261 262 254 247 242 247 264 280 290 288 292 297 301 305 309 312 313 314 315 315 315 316 317 317 317 318 319 318 319 319 320 321
238 239 242 246 248 252 256 251 246 243 258 255 244 238 235 241 254 269 290 285 285 291 297 303 307 310 311 312 314 316 316 317 317 317 318 319 320 320 319 319 320 320 321 321
238 243 249 251 247 249 257 252 250 261 262 247 237 242 246 254 282 292 282 286 292 298 303 306 308 310 313 315 317 317 318 318 318 318 320 321 321 320 319 320 320 321 321 321
247 242 236 253 268 271 263 260 253 247 245 244 238 242 269 290 276 279 284 291 297 303 306 308 310 314 317 318 318 318 319 319 319 320 320 320 319 319 319 320 320 321 321 322
248 253 269 276 266 257 252 243 237 237 231 233 249 276 268 269 274 280 288 296 303 307 307 309 312 316 318 318 318 319 319 319 320 320 320 319 318 318 319 319 319 320 320 322
255 264 254 250 248 247 234 232 229 231 240 259 261 262 267 272 277 283 291 297 302 306 307 310 314 317 318 318 319 319 319 319 320 319 318 318 318 318 318 318 318 318 319 320
245 236 233 228 229 231 232 230 239 258 265 260 262 266 270 273 276 283 291 296 302 305 308 313 317 317 317 317 318 319 318 318 317 317 317 317 317 317 317 317 317 316 317 316
229 232 237 241 238 233 246 263 270 263 257 259 262 266 271 274 278 285 291 296 301 306 311 314 314 314 315 317 317 316 315 314 314 315 315 314 315 315 316 316 317 318 318 319
255 260 260 250 249 263 273 273 268 266 266 268 271 273 274 276 282 288 293 299 303 307 309 310 311 312 313 313 313 312 311 311 312 314 313 313 314 315 316 317 319 321 322 322
273 270 264 260 264 270 276 278 277 276 275 275 277 279 280 283 286 290 294 299 303 305 307 308 309 310 310 310 310 309 308 309 311 312 311 311 312 314 317 319 321 323 324 326